Wind_Speed
23 23 23 23 23 23 23 21 19 19 18 17 16 15 13 12 11 10 9 9 8 7 6 6 6 6 2 4 9 7 9 12 11 10 11 11 15 14 8 8 2 3 5 7 2 4 5
24 24 24 24 24 24 25 23 21 20 20 19 17 15 14 12 11 11 9 8 7 6 6 5 5 4 1 6 16 13 9 10 11 13 13 19 12 13 7 5 5 1 8 8 10 4 3
26 25 25 25 26 26 27 27 24 22 22 20 18 15 14 13 12 11 9 8 6 6 5 4 4 2 5 16 7 11 10 10 11 17 12 24 21 7 10 9 3 3 3 7 9 6 4
28 28 27 27 27 27 27 28 27 25 23 22 19 16 15 13 12 11 8 6 5 6 5 4 3 1 8 16 20 13 11 16 16 16 21 22 12 7 6 10 10 2 4 5 8 7 6
29 29 30 30 30 28 28 29 29 27 26 24 21 17 15 13 11 9 5 4 5 6 6 4 2 4 8 12 14 20 17 17 19 18 18 13 7 6 10 7 5 3 5 5 10 15 9
30 30 30 31 31 32 30 30 30 30 27 25 22 19 15 12 10 4 5 6 5 4 3 2 10 4 8 13 15 18 16 19 9 7 7 5 3 6 6 4 5 5 6 7 8 6 8
31 32 32 32 33 33 33 31 32 32 30 28 24 20 15 10 6 4 8 5 1 2 9 11 9 6 8 21 19 17 22 19 9 7 7 10 4 9 16 16 7 7 10 10 18 2 14
32 32 33 33 33 34 35 33 33 34 33 30 27 20 13 8 4 9 10 5 11 11 6 23 20 18 28 17 9 13 27 8 7 8 10 6 10 18 16 6 8 8 10 13 5 10 9
33 33 33 34 34 35 35 35 34 35 34 32 28 19 12 5 4 10 13 19 9 22 4 6 13 9 13 6 12 13 13 10 7 9 10 11 14 19 13 6 11 8 7 2 4 7 6
33 33 33 34 35 35 35 36 35 35 36 35 30 23 10 2 4 5 9 28 25 16 4 3 9 7 12 7 6 15 17 9 7 12 14 10 17 10 3 5 7 7 6 7 3 2 3
33 34 34 35 36 36 36 36 36 36 38 37 32 23 7 16 5 5 6 10 15 9 4 15 10 10 10 11 7 13 23 11 13 13 6 12 6 8 6 8 9 8 10 3 2 12 7
33 35 35 36 37 37 37 36 37 37 39 39 32 19 10 12 10 17 12 11 12 2 7 9 10 12 11 10 12 14 10 10 9 11 12 10 9 6 8 6 8 11 4 8 6 5 2
34 34 34 35 37 38 37 38 38 38 41 40 29 14 18 10 4 5 11 3 2 5 12 12 12 16 11 10 15 15 13 11 9 4 7 10 9 9 5 7 9 5 2 2 5 6 2
35 35 35 35 37 39 38 39 40 40 43 38 22 11 11 24 10 10 11 2 5 10 8 13 13 15 13 13 11 16 12 10 12 12 5 7 7 11 7 6 6 7 8 5 5 6 8
34 34 34 36 38 39 39 40 41 43 44 33 10 4 6 26 15 10 2 5 4 2 6 6 14 12 12 11 8 9 10 10 12 15 9 2 6 9 8 7 8 10 5 10 8 4 4
34 34 35 37 38 39 40 41 43 45 44 23 2 5 10 15 15 9 3 6 6 5 4 8 9 11 12 15 8 8 10 14 15 16 14 8 3 5 15 8 8 7 5 5 4 4 2
35 35 35 37 38 39 40 41 44 47 44 15 1 3 9 23 19 3 5 6 9 13 16 17 8 9 13 10 11 14 13 11 22 17 16 6 3 9 2 5 7 4 4 4 6 5 4
35 35 36 37 38 39 40 41 43 47 45 12 7 3 23 27 4 4 7 6 7 23 18 5 8 10 8 12 9 11 13 8 16 7 3 4 3 2 6 5 6 3 7 2 5 4 4
35 35 36 37 38 39 41 42 42 44 35 12 4 3 18 18 4 7 10 17 20 21 12 6 5 9 5 8 1 6 7 5 6 7 4 4 2 2 6 10 6 6 11 16 15 2 4
34 35 36 36 37 38 40 42 43 43 36 3 2 3 1 4 7 12 13 13 16 11 7 11 7 10 6 7 3 4 4 3 10 4 5 4 2 4 5 9 4 9 18 14 7 4 4
35 36 37 36 36 37 39 41 43 45 25 9 4 1 3 3 6 11 12 14 15 14 6 7 7 7 7 4 7 7 11 2 7 1 3 3 1 5 4 10 7 5 13 7 11 13 4
35 36 36 36 35 35 37 38 41 45 21 2 4 3 4 7 13 13 13 10 11 11 6 7 9 10 11 8 6 6 1 8 4 3 3 1 1 5 3 3 12 8 12 4 3 18 12
34 35 35 35 35 33 35 35 37 41 34 8 11 11 3 6 9 9 7 16 8 9 4 8 18 7 10 6 22 24 13 7 7 3 4 2 3 4 3 7 9 3 4 4 2 12 16
34 34 33 33 33 32 32 32 32 33 33 8 8 10 3 5 6 10 17 22 11 8 5 13 12 7 2 4 3 4 10 6 9 1 1 3 2 3 2 4 2 2 7 9 19 15 14
34 34 32 31 33 31 30 30 30 31 30 18 11 6 3 5 9 11 17 15 12 7 6 7 2 6 5 3 2 0 2 2 6 6 5 2 0 2 5 3 3 7 6 6 9 11 13
33 33 32 30 29 30 30 30 30 31 29 25 11 10 5 4 4 11 13 10 6 11 8 4 6 5 6 3 2 3 3 5 4 4 6 2 2 5 1 1 3 4 7 8 2 5 9
32 31 30 28 29 29 30 30 29 30 26 22 6 10 7 3 3 11 6 6 7 8 3 4 7 4 2 1 3 3 5 5 5 5 5 2 1 3 4 3 4 5 6 6 3 3 8
32 31 29 28 29 29 30 30 31 28 22 21 10 13 10 3 9 6 10 8 9 7 4 8 6 4 3 2 2 4 3 5 3 2 5 5 5 1 2 1 3 9 6 5 4 8 9
31 30 28 28 29 30 31 31 29 24 20 14 6 14 14 4 6 21 22 19 13 9 4 5 4 6 3 4 4 4 3 3 3 1 6 4 4 4 4 4 4 7 8 7 9 8 7
Wind_Direction
23 22 20 18 15 11 5 0 356 352 348 342 335 328 319 311 305 298 288 280 266 254 253 260 276 295 294 224 250 243 191 201 216 232 250 266 274 289 257 249 22 27 341 297 247 237 255
25 22 19 16 14 11 6 3 358 354 350 345 337 330 319 311 303 298 287 273 259 244 240 246 273 306 281 252 240 224 184 196 207 206 253 257 270 304 297 306 132 271 288 347 325 247 315
26 23 20 16 14 11 9 5 360 354 350 346 338 330 321 312 302 294 284 266 247 233 226 235 258 340 261 239 150 181 183 210 223 223 237 262 282 352 327 318 292 304 352 291 278 284 175
25 22 19 16 13 10 7 5 1 354 350 346 341 332 322 311 300 291 275 257 229 211 205 224 240 151 253 254 255 291 205 217 223 239 250 272 339 336 290 291 302 253 350 357 295 279 242
24 21 18 16 13 10 7 3 1 355 351 346 341 334 323 310 300 289 251 215 197 190 199 212 271 212 262 245 235 251 228 235 212 227 246 274 349 286 307 292 325 19 248 263 298 272 251
19 17 15 12 11 9 7 3 360 356 351 346 341 334 324 308 299 265 195 161 158 170 221 235 265 276 259 219 198 208 238 248 198 219 250 235 243 262 276 262 217 181 290 270 262 277 62
14 12 11 10 7 5 5 4 1 356 352 347 342 336 326 311 288 202 146 130 113 237 233 200 193 233 283 207 199 197 225 238 231 196 221 238 202 236 244 247 181 207 225 238 271 37 64
9 7 6 5 4 3 2 1 360 356 352 347 342 337 331 312 254 196 175 240 239 359 235 224 252 248 260 229 179 193 217 198 227 205 222 259 224 239 239 155 233 238 239 263 31 99 95
6 4 3 2 1 360 358 358 357 355 351 346 341 335 324 302 239 204 209 236 304 342 297 232 209 227 250 183 182 207 179 202 211 233 228 216 241 239 246 195 222 249 238 260 159 123 96
5 3 2 360 359 357 355 355 355 354 352 347 339 330 296 204 178 205 237 243 258 297 295 234 164 233 238 184 255 188 198 193 233 216 234 232 255 272 138 209 239 248 304 292 359 351 46
3 2 360 358 357 355 353 352 353 352 352 347 340 334 228 172 288 230 246 217 220 257 287 147 171 192 188 179 170 213 191 219 232 240 212 255 248 266 219 221 241 230 233 331 318 111 114
358 357 357 355 355 353 352 351 351 351 351 347 340 331 194 202 250 229 273 252 208 276 242 179 165 174 175 193 241 178 163 213 250 263 280 253 285 253 221 241 263 266 15 326 287 158 127
357 356 355 354 353 352 351 350 350 351 350 345 337 318 194 187 192 285 291 239 218 236 131 154 164 162 183 203 235 164 177 195 224 220 270 287 256 277 190 226 254 206 206 294 27 22 24
358 356 355 355 353 352 352 351 350 351 350 341 332 310 230 213 241 299 292 227 250 276 291 155 163 173 190 196 225 172 170 192 223 244 234 222 267 222 212 217 232 228 189 168 170 175 145
358 357 356 354 352 352 351 351 351 352 350 339 331 313 230 228 234 267 304 209 234 60 296 305 161 175 206 206 166 156 186 208 209 225 221 241 294 182 206 194 200 263 302 240 133 30 67
360 357 356 355 354 353 352 351 354 354 352 339 330 223 233 207 196 202 232 245 249 146 19 295 225 186 203 208 140 158 185 207 225 213 213 229 254 204 206 199 237 189 260 353 344 117 152
360 358 357 354 355 352 353 353 357 357 355 354 263 245 224 176 165 214 222 233 263 268 235 251 218 193 226 178 169 189 194 218 210 212 218 148 185 280 170 163 232 299 270 268 115 123 133
359 358 356 355 354 353 353 354 360 1 359 354 306 260 146 154 175 211 235 251 262 276 287 270 301 289 224 178 177 197 201 244 195 113 157 171 178 232 270 318 11 359 332 332 115 204 194
358 357 356 354 354 354 353 356 360 1 3 331 311 288 160 183 230 236 238 244 252 268 266 316 261 313 312 336 279 206 87 52 32 64 105 323 302 319 324 357 356 11 344 336 339 57 178
358 356 355 354 354 355 356 356 359 358 358 243 260 302 183 203 264 287 292 291 279 228 281 295 284 248 44 270 31 33 87 138 70 87 198 128 352 92 147 195 206 300 319 325 353 328 161
357 356 355 354 354 356 357 358 1 358 2 167 222 41 342 292 294 252 263 278 300 294 195 283 338 333 320 103 25 31 4 9 98 271 38 62 31 11 119 169 177 221 298 319 346 305 34
355 355 354 354 355 358 359 1 5 3 14 301 14 16 332 289 275 282 231 262 296 303 47 349 321 20 57 115 146 76 272 1 237 271 177 264 324 23 359 257 191 197 236 242 278 295 116
355 355 354 354 355 357 359 2 8 8 18 357 349 349 283 272 318 1 328 328 252 126 201 351 329 59 80 72 154 180 172 238 310 58 22 47 53 35 312 341 338 307 211 226 38 54 118
354 354 353 353 354 355 358 2 6 9 13 336 291 308 284 310 346 334 331 330 58 58 69 42 323 64 18 235 159 202 154 132 291 303 15 320 157 156 234 330 287 176 27 54 70 46 111
352 353 354 354 355 354 357 359 1 2 360 352 304 321 322 310 322 351 343 321 343 71 124 117 342 332 349 352 340 278 283 245 240 228 201 89 116 187 157 208 210 52 15 25 106 38 37
352 352 354 355 359 358 357 356 355 355 355 357 337 4 320 305 19 340 316 6 354 354 349 115 146 47 11 345 323 181 220 268 285 115 126 255 271 140 49 290 315 118 43 358 144 58 39
351 350 353 354 355 354 353 352 351 350 352 349 287 347 317 291 240 336 358 352 332 328 346 348 345 16 166 301 291 263 261 254 227 222 176 159 56 166 212 211 80 44 29 314 64 178 60
349 352 353 353 353 354 353 350 349 349 353 353 312 352 313 291 295 316 352 335 339 19 5 326 352 354 302 287 232 259 249 264 229 84 129 144 155 143 309 35 124 334 28 79 158 61 62
347 349 350 350 351 351 350 347 345 346 347 353 300 341 343 271 270 303 292 276 276 303 319 330 301 322 359 12 9 330 339 342 147 72 20 48 129 133 96 155 145 67 104 69 75 79 57
Height
829 826 822 819 815 812 807 803 800 796 792 789 786 783 781 779 777 776 775 775 775 776 776 777 777 776 777 777 763 750 750 752 754 755 754 752 754 749 754 747 741 752 746 738 733 732 733
831 827 824 820 816 812 807 803 799 795 791 787 784 781 779 777 775 774 773 773 773 774 775 776 776 776 777 780 747 750 749 752 753 754 752 748 747 739 745 745 751 742 744 743 735 733 730
833 829 825 821 816 812 807 803 798 794 790 786 782 779 777 775 773 772 771 771 772 773 774 775 775 776 775 759 745 748 748 749 750 752 749 744 742 744 745 752 732 738 757 745 740 737 739
835 830 826 822 817 812 807 802 798 793 789 785 781 778 775 773 771 770 769 770 771 772 773 774 775 776 771 746 745 745 747 748 748 748 747 744 742 743 746 738 742 753 758 782 746 738 733
837 832 828 823 818 812 807 802 797 792 788 783 779 776 773 770 768 767 768 769 770 771 773 774 776 776 765 743 744 743 744 744 745 746 745 743 744 752 751 766 777 763 795 780 765 735 740
838 833 828 823 818 813 807 802 797 791 786 781 777 773 770 768 766 766 767 769 770 772 773 775 775 779 753 741 738 742 742 742 743 745 747 748 756 771 768 778 812 790 782 771 775 745 737
839 834 829 823 818 813 807 801 795 790 785 780 775 771 768 765 765 766 768 770 775 775 770 760 752 746 731 733 736 739 740 740 740 747 771 756 781 790 770 757 754 763 772 776 755 730 762
839 834 829 823 818 812 807 801 795 789 783 778 773 769 766 764 764 765 767 765 749 754 758 746 743 741 733 732 739 737 737 748 749 769 757 769 784 753 743 741 750 757 769 770 761 744 760
840 834 829 823 818 812 806 800 794 788 782 776 771 767 765 764 763 765 763 753 746 746 751 734 733 736 729 724 736 737 733 740 752 764 760 773 755 736 737 743 757 757 765 756 762 756 756
839 834 828 823 817 811 805 799 793 786 780 773 768 763 762 763 768 763 760 746 750 750 774 742 739 730 723 725 738 724 727 737 746 760 751 755 731 734 739 750 750 773 737 739 746 761 806
839 834 828 822 816 810 804 797 791 784 777 771 765 760 758 760 760 759 745 742 747 752 805 725 728 711 715 732 722 728 723 732 751 749 745 756 739 742 748 746 736 755 731 740 743 788 801
839 833 827 821 815 808 802 795 788 782 775 767 761 757 757 761 759 746 743 746 749 781 789 730 716 725 730 728 727 721 728 726 727 743 739 740 719 726 733 726 727 726 738 746 750 774 814
838 832 826 820 814 807 800 793 785 779 771 764 757 754 754 755 748 745 744 744 782 787 709 729 730 723 730 736 731 729 741 752 764 775 773 747 738 722 716 740 729 733 757 809 817 824 822
838 832 826 819 813 805 798 791 783 776 768 759 753 750 749 746 745 746 744 762 790 737 727 704 718 723 738 728 729 728 744 759 745 750 766 778 779 735 716 733 747 747 760 803 827 820 826
838 832 826 819 812 805 797 790 781 773 764 754 749 748 747 741 744 748 753 779 755 749 742 728 717 738 736 723 724 733 743 750 740 738 771 764 758 710 713 714 725 744 764 736 780 785 795
838 832 825 819 811 804 796 789 780 770 761 751 749 748 739 736 743 748 761 768 741 724 722 720 737 724 740 727 732 737 745 726 731 719 719 741 766 720 712 709 713 730 722 769 765 813 836
839 832 825 818 811 804 796 789 780 769 758 751 750 745 724 733 741 749 764 749 728 706 707 716 713 718 715 719 719 731 734 714 708 711 708 722 744 741 717 729 742 740 748 739 755 779 806
839 832 826 819 811 804 796 789 780 771 758 754 749 746 725 731 748 743 749 735 719 708 689 695 696 702 703 703 715 720 720 706 690 696 719 711 736 759 739 714 712 720 738 733 778 777 768
840 833 826 819 812 804 796 788 781 774 768 765 756 741 724 726 751 744 729 722 713 708 699 694 698 694 687 707 721 705 706 692 689 703 725 721 746 776 758 754 727 741 736 744 741 749 770
840 834 827 819 812 804 796 788 779 772 767 765 760 752 727 725 725 733 734 723 714 688 694 691 693 694 695 716 717 723 716 703 699 708 716 713 735 758 786 781 760 763 752 744 754 774 764
840 834 827 820 812 805 797 788 779 767 759 759 750 749 745 749 735 728 726 719 714 709 689 692 700 696 701 728 744 746 739 716 713 715 709 719 749 739 744 749 757 750 747 747 759 752 767
841 834 827 820 813 806 799 791 782 770 759 758 756 760 751 746 730 715 720 721 712 706 705 711 714 703 708 734 750 764 764 757 733 718 720 719 752 741 750 738 744 753 740 735 741 737 756
841 834 827 821 815 808 802 795 788 779 770 769 765 760 756 751 731 732 722 718 705 707 714 711 716 713 730 723 728 738 739 732 732 724 733 735 751 765 772 751 751 769 746 738 744 740 749
841 835 828 822 816 810 804 799 793 789 786 785 776 771 764 754 743 741 730 719 709 711 719 718 718 719 713 701 705 717 722 727 728 716 719 742 749 758 777 764 794 753 730 729 747 750 748
841 835 829 822 816 811 806 801 796 792 788 785 779 775 771 768 748 737 733 728 707 707 718 730 725 710 702 708 730 736 736 731 725 715 722 725 744 766 784 783 760 751 747 748 760 777 760
840 834 829 823 817 812 807 802 797 793 787 782 778 778 776 771 753 741 739 733 736 733 720 711 708 705 709 725 734 749 763 745 744 734 719 725 733 761 764 779 786 767 747 738 740 795 765
840 834 828 823 818 813 807 802 797 792 788 785 779 778 776 773 751 750 751 749 737 737 737 728 719 716 710 736 750 754 754 728 753 748 752 751 752 764 770 774 772 755 748 742 778 801 769
839 833 828 823 818 813 808 802 797 792 788 784 779 778 777 773 759 750 748 749 743 742 752 737 733 730 732 744 745 746 743 737 732 724 738 751 762 765 763 771 795 755 754 779 777 770 772
838 832 827 822 817 812 807 802 796 792 788 786 782 777 775 773 759 751 746 744 742 740 743 738 742 737 733 745 745 739 741 732 735 753 725 761 751 767 769 783 764 758 764 763 766 774 775